Location: Miramichi City (Newcastle)
(46.9830°N, 65.5670°W)
Time: 21:41:00
(UTC-03:00)

Iridium 12 - Visible Passes

Search period start: 24 July 2017 00:00
Search period end: 03 August 2017 00:00
Orbit: 776 x 779 km, 86.4° (Epoch: 24 July)

Date Brightness Start Highest point End Pass type
(mag) Time Alt. Az. Time Alt. Az. Time Alt. Az.
24 Jul 7.9 02:14:28 10° ESE 02:17:28 16° ENE 02:20:28 10° NE visible
24 Jul 5.5 03:54:07 22° SSW 03:57:31 74° W 04:02:45 10° N visible
25 Jul 5.8 03:20:56 24° SSE 03:24:00 64° E 03:29:11 10° N visible
25 Jul 7.2 05:01:39 10° WSW 05:05:14 18° WNW 05:08:49 10° NNW visible
26 Jul 6.7 02:47:43 20° SE 02:50:37 36° E 02:55:23 10° NNE visible
26 Jul 6.5 04:28:12 17° SW 04:31:23 31° WNW 04:36:00 10° NNW visible
27 Jul 7.5 02:14:30 14° ESE 02:17:21 22° E 02:21:14 10° NNE visible
27 Jul 5.8 03:54:58 26° SSW 03:57:40 53° W 04:02:47 10° N visible
28 Jul 7.9 01:42:07 10° E 01:44:12 12° ENE 01:46:19 10° NE visible
28 Jul 5.5 03:21:45 34° S 03:24:05 89° E 03:29:21 10° N visible
28 Jul 7.5 05:03:08 10° W 05:05:36 13° WNW 05:08:05 10° NW visible
29 Jul 6.1 02:48:30 32° SE 02:50:37 51° E 02:55:41 10° NNE visible
29 Jul 6.9 04:28:59 16° WSW 04:31:40 23° WNW 04:35:45 10° NNW visible
30 Jul 7.0 02:15:15 23° ESE 02:17:17 30° E 02:21:46 10° NNE visible
30 Jul 6.2 03:55:44 27° SW 03:57:52 38° W 04:02:44 10° N visible
31 Jul 7.6 01:42:00 14° ESE 01:44:04 17° ENE 01:47:25 10° NE visible
31 Jul 5.6 03:22:28 41° SSW 03:24:13 66° W 03:29:26 10° N visible
01 Aug 5.6 02:49:12 47° SSE 02:50:41 72° E 02:55:54 10° N visible
01 Aug 7.3 04:29:41 13° W 04:32:00 16° WNW 04:35:16 10° NNW visible
02 Aug 6.4 02:15:56 34° ESE 02:17:16 41° E 02:22:08 10° NNE visible
02 Aug 6.7 03:56:25 23° WSW 03:58:08 28° WNW 04:02:35 10° NNW visible
